,,,PA_Meas_PMT16A,,PR_Meas_QMR101_102,,RH_Meas_QMH101,,SR_Meas_QMS101,,TA_Meas_QMH101,,GenWind,,GenWind,
date,time,status,PA,status,PR,status,RH,status,SR,status,TA,status,DirAvg,status,SpdAvg,
2009-07-17, 00:00:04,VALID,1004.95,VALID,0,VALID,92.134,VALID,0.100563,VALID,24.7743,VALID,54,VALID,0.344531,
2009-07-17, 00:01:04,VALID,1004.96,VALID,0,VALID,92.1264,VALID,0,VALID,24.7529,VALID,53,VALID,0.488281,
2009-07-17, 00:02:05,VALID,1004.94,VALID,0,VALID,92.1416,VALID,0,VALID,24.7529,VALID,54,VALID,0.430469,
2009-07-17, 00:03:05,VALID,1004.93,VALID,0,VALID,92.1187,VALID,0,VALID,24.7724,VALID,54,VALID,0.375,
2009-07-17, 00:04:05,VALID,1004.89,VALID,0,VALID,92.1035,VALID,0,VALID,24.7724,VALID,54,VALID,0.124609,
2009-07-17, 00:05:05,VALID,1004.9,VALID,0,VALID,92.0882,VALID,0,VALID,24.7743,VALID,54,VALID,0.395703,
2009-07-17, 00:06:05,VALID,1004.87,VALID,0,VALID,92.1492,VALID,0,VALID,24.7529,VALID,54,VALID,0.356641,
2009-07-17, 00:07:05,VALID,1004.85,VALID,0,VALID,92.2103,VALID,0,VALID,24.7529,VALID,32,VALID,0.592578,
2009-07-17, 00:08:05,VALID,1004.86,VALID,0,VALID,92.1645,VALID,0.100563,VALID,24.7743,VALID,39,VALID,0.160547,
2009-07-17, 00:09:05,VALID,1004.84,VALID,0,VALID,92.1416,VALID,0,VALID,24.7548,VALID,39,VALID,0.278125,
2009-07-17, 00:10:05,VALID,1004.82,VALID,0,VALID,92.1569,VALID,0,VALID,24.714,VALID,39,VALID,0.333594,
2009-07-17, 00:11:05,VALID,1004.81,VALID,0,VALID,92.1645,VALID,0,VALID,24.714,VALID,39,VALID,0.258984,
2009-07-17, 00:12:05,VALID,1004.82,VALID,0,VALID,92.2255,VALID,0,VALID,24.7159,VALID,39,VALID,0.215234,
2009-07-17, 00:13:05,VALID,1004.79,VALID,0,VALID,92.2561,VALID,0,VALID,24.6964,VALID,40,VALID,0.401953,
2009-07-17, 00:14:05,VALID,1004.78,VALID,0,VALID,92.3018,VALID,0,VALID,24.6556,VALID,51,VALID,0.136719,
2009-07-17, 00:15:05,VALID,1004.78,VALID,0,VALID,92.3476,VALID,0,VALID,24.6788,VALID,51,VALID,0.0105469,
2009-07-17, 00:16:05,VALID,1004.77,VALID,0,VALID,92.4163,VALID,0,VALID,24.6361,VALID,51,VALID,0,
2009-07-17, 00:17:05,VALID,1004.75,VALID,0,VALID,92.4697,VALID,0,VALID,24.6166,VALID,51,VALID,0,
2009-07-17, 00:18:05,VALID,1004.74,VALID,0,VALID,92.5154,VALID,0,VALID,24.5972,VALID,51,VALID,0.0148437,
2009-07-17, 00:19:05,VALID,1004.73,VALID,0,VALID,92.607,VALID,0,VALID,24.6185,VALID,51,VALID,0.0273438,
2009-07-17, 00:20:05,VALID,1004.73,VALID,0,VALID,92.6375,VALID,0,VALID,24.5777,VALID,51,VALID,0,
2009-07-17, 00:21:05,VALID,1004.71,VALID,0,VALID,92.6756,VALID,0,VALID,24.5582,VALID,51,VALID,0.10625,
2009-07-17, 00:22:05,VALID,1004.7,VALID,0,VALID,92.6756,VALID,0,VALID,24.5796,VALID,51,VALID,0.119141,
2009-07-17, 00:23:05,VALID,1004.69,VALID,0,VALID,92.6985,VALID,0,VALID,24.5796,VALID,51,VALID,0.0492188,
2009-07-17, 00:24:05,VALID,1004.68,VALID,0,VALID,92.7443,VALID,0,VALID,24.5582,VALID,51,VALID,0.318359,
2009-07-17, 00:25:05,VALID,1004.69,VALID,0,VALID,92.7824,VALID,0,VALID,24.5796,VALID,60,VALID,0.477734,
2009-07-17, 00:26:05,VALID,1004.69,VALID,0,VALID,92.7672,VALID,0,VALID,24.599,VALID,60,VALID,0.161328,
2009-07-17, 00:27:05,VALID,1004.67,VALID,0,VALID,92.7367,VALID,0,VALID,24.599,VALID,60,VALID,0.255469,
2009-07-17, 00:28:05,VALID,1004.67,VALID,0,VALID,92.6909,VALID,0,VALID,24.599,VALID,60,VALID,0.425391,
2009-07-17, 00:29:05,VALID,1004.66,VALID,0,VALID,92.6451,VALID,0,VALID,24.5777,VALID,60,VALID,0.400391,
2009-07-17, 00:30:05,VALID,1004.66,VALID,0,VALID,92.5917,VALID,0,VALID,24.599,VALID,60,VALID,0.241406,
2009-07-17, 00:31:05,VALID,1004.66,VALID,0,VALID,92.5612,VALID,0,VALID,24.599,VALID,60,VALID,0.311328,
2009-07-17, 00:32:05,VALID,1004.63,VALID,0,VALID,92.607,VALID,0,VALID,24.6185,VALID,69,VALID,0.206641,
2009-07-17, 00:33:05,VALID,1004.6,VALID,0,VALID,92.5612,VALID,0,VALID,24.5972,VALID,69,VALID,0.363281,
2009-07-17, 00:34:05,VALID,1004.61,VALID,0,VALID,92.5154,VALID,0,VALID,24.6185,VALID,69,VALID,0.392188,
2009-07-17, 00:35:05,VALID,1004.56,VALID,0,VALID,92.4849,VALID,0.100563,VALID,24.638,VALID,69,VALID,0,
2009-07-17, 00:36:05,VALID,1004.55,VALID,0,VALID,92.4239,VALID,0,VALID,24.6185,VALID,69,VALID,0,
2009-07-17, 00:37:05,VALID,1004.52,VALID,0,VALID,92.4391,VALID,0,VALID,24.5972,VALID,69,VALID,0,
2009-07-17, 00:38:05,VALID,1004.51,VALID,0,VALID,92.462,VALID,0.100563,VALID,24.6166,VALID,69,VALID,0.501953,
2009-07-17, 00:39:05,VALID,1004.48,VALID,0,VALID,92.4315,VALID,0,VALID,24.5777,VALID,69,VALID,0.276172,
2009-07-17, 00:40:05,VALID,1004.47,VALID,0,VALID,92.401,VALID,0,VALID,24.5972,VALID,69,VALID,0.346484,
2009-07-17, 00:41:05,VALID,1004.42,VALID,0,VALID,92.3934,VALID,0,VALID,24.599,VALID,69,VALID,0.323438,
2009-07-17, 00:42:05,VALID,1004.42,VALID,0,VALID,92.3476,VALID,0.100563,VALID,24.6166,VALID,69,VALID,0.407031,
2009-07-17, 00:43:05,VALID,1004.42,VALID,0,VALID,92.3095,VALID,0,VALID,24.638,VALID,69,VALID,0.503125,
2009-07-17, 00:44:05,VALID,1004.41,VALID,0,VALID,92.2103,VALID,0,VALID,24.6361,VALID,69,VALID,0.390234,
2009-07-17, 00:45:05,VALID,1004.4,VALID,0,VALID,92.1569,VALID,0,VALID,24.6574,VALID,69,VALID,0.294531,
2009-07-17, 00:46:05,VALID,1004.37,VALID,0,VALID,92.0424,VALID,0,VALID,24.5972,VALID,69,VALID,0.266016,
2009-07-17, 00:47:05,VALID,1004.38,VALID,0,VALID,91.9967,VALID,0,VALID,24.5972,VALID,69,VALID,0.107031,
2009-07-17, 00:48:05,VALID,1004.35,VALID,0,VALID,92.0501,VALID,0,VALID,24.5796,VALID,69,VALID,0,
2009-07-17, 00:49:05,VALID,1004.33,VALID,0,VALID,92.1187,VALID,0,VALID,24.5796,VALID,69,VALID,0,
2009-07-17, 00:50:05,VALID,1004.32,VALID,0,VALID,92.1721,VALID,0,VALID,24.5406,VALID,69,VALID,0.126172,
2009-07-17, 00:51:05,VALID,1004.29,VALID,0,VALID,92.195,VALID,0,VALID,24.4998,VALID,69,VALID,0,
2009-07-17, 00:52:05,VALID,1004.3,VALID,0,VALID,92.2027,VALID,0,VALID,24.5017,VALID,69,VALID,0,
2009-07-17, 00:53:05,VALID,1004.31,VALID,0,VALID,92.2713,VALID,0,VALID,24.4414,VALID,69,VALID,0.185937,
2009-07-17, 00:54:05,VALID,1004.3,VALID,0,VALID,92.3171,VALID,0,VALID,24.4628,VALID,69,VALID,0.160156,
2009-07-17, 00:55:05,VALID,1004.27,VALID,0,VALID,92.3476,VALID,0,VALID,24.4238,VALID,69,VALID,0.185547,
2009-07-17, 00:56:05,VALID,1004.28,VALID,0,VALID,92.3857,VALID,0,VALID,24.3441,VALID,69,VALID,0,
2009-07-17, 00:57:05,VALID,1004.28,VALID,0,VALID,92.5002,VALID,0,VALID,24.3441,VALID,69,VALID,0.15,
2009-07-17, 00:58:05,VALID,1004.27,VALID,0,VALID,92.5917,VALID,0,VALID,24.3441,VALID,69,VALID,0.246875,
2009-07-17, 00:59:05,VALID,1004.25,VALID,0,VALID,92.668,VALID,0,VALID,24.3052,VALID,69,VALID,0.171094,
2009-07-17, 01:00:05,VALID,1004.22,VALID,0,VALID,92.6985,VALID,0,VALID,24.3265,VALID,69,VALID,0.0238281,
2009-07-17, 01:01:05,VALID,1004.22,VALID,0,VALID,92.6909,VALID,0,VALID,24.307,VALID,69,VALID,0.310547,
2009-07-17, 01:02:05,VALID,1004.21,VALID,0,VALID,92.6985,VALID,0,VALID,24.2681,VALID,69,VALID,0.289844,
2009-07-17, 01:03:05,VALID,1004.19,VALID,0,VALID,92.7214,VALID,0,VALID,24.2486,VALID,69,VALID,0.291406,
2009-07-17, 01:04:05,VALID,1004.19,VALID,0,VALID,92.8282,VALID,0,VALID,24.2273,VALID,69,VALID,0.294531,
2009-07-17, 01:05:05,VALID,1004.17,VALID,0,VALID,92.8435,VALID,0,VALID,24.2273,VALID,69,VALID,0.0152344,
2009-07-17, 01:06:05,VALID,1004.18,VALID,0,VALID,92.9274,VALID,0,VALID,24.2291,VALID,69,VALID,0.103125,
2009-07-17, 01:07:05,VALID,1004.19,VALID,0,VALID,93.0342,VALID,0,VALID,24.2291,VALID,69,VALID,0.473437,
2009-07-17, 01:08:05,VALID,1004.16,VALID,0,VALID,93.0952,VALID,0,VALID,24.2078,VALID,71,VALID,0.503516,
2009-07-17, 01:09:05,VALID,1004.18,VALID,0,VALID,93.141,VALID,0,VALID,24.2486,VALID,74,VALID,0.51875,
2009-07-17, 01:10:05,VALID,1004.16,VALID,0,VALID,93.1868,VALID,0,VALID,24.2468,VALID,69,VALID,0.538672,
2009-07-17, 01:11:05,VALID,1004.13,VALID,0,VALID,93.2478,VALID,0,VALID,24.2662,VALID,65,VALID,0.557422,
2009-07-17, 01:12:05,VALID,1004.11,VALID,0,VALID,93.2554,VALID,0,VALID,24.3459,VALID,71,VALID,0.698047,
2009-07-17, 01:13:05,VALID,1004.08,VALID,0,VALID,93.2097,VALID,0,VALID,24.3636,VALID,70,VALID,0.299609,
2009-07-17, 01:14:05,VALID,1004.09,VALID,0,VALID,93.1029,VALID,0.100563,VALID,24.4025,VALID,70,VALID,0.664453,
2009-07-17, 01:15:05,VALID,1004.11,VALID,0,VALID,93.0418,VALID,0,VALID,24.422,VALID,68,VALID,0.542188,
2009-07-17, 01:16:05,VALID,1004.03,VALID,0,VALID,92.8892,VALID,0,VALID,24.4609,VALID,73,VALID,0.325,
2009-07-17, 01:17:05,VALID,1004.01,VALID,0,VALID,92.7824,VALID,0,VALID,24.5193,VALID,65,VALID,0.391406,
2009-07-17, 01:18:05,VALID,1004.03,VALID,0,VALID,92.5993,VALID,0,VALID,24.5582,VALID,65,VALID,0.345313,
2009-07-17, 01:19:05,VALID,1004.01,VALID,0,VALID,92.4544,VALID,0,VALID,24.5796,VALID,65,VALID,0.164844,
2009-07-17, 01:20:05,VALID,1004.01,VALID,0,VALID,92.3018,VALID,0,VALID,24.6166,VALID,71,VALID,0.328125,
2009-07-17, 01:21:05,VALID,1004,VALID,0,VALID,92.1111,VALID,0,VALID,24.638,VALID,70,VALID,0.385547,
2009-07-17, 01:22:05,VALID,1003.99,VALID,0,VALID,91.9967,VALID,0,VALID,24.6361,VALID,69,VALID,0.345703,
2009-07-17, 01:23:05,VALID,1003.99,VALID,0,VALID,91.8822,VALID,0,VALID,24.6556,VALID,68,VALID,0.190625,
2009-07-17, 01:24:05,VALID,1003.97,VALID,0,VALID,91.7754,VALID,0.100563,VALID,24.6769,VALID,70,VALID,0.0496094,
2009-07-17, 01:25:05,VALID,1003.99,VALID,0,VALID,91.6686,VALID,0,VALID,24.675,VALID,70,VALID,0.158203,
2009-07-17, 01:26:05,VALID,1003.96,VALID,0,VALID,91.5008,VALID,0,VALID,24.675,VALID,70,VALID,0.247266,
2009-07-17, 01:27:05,VALID,1003.95,VALID,0,VALID,91.4169,VALID,0,VALID,24.6964,VALID,70,VALID,0.153125,
2009-07-17, 01:28:05,VALID,1003.93,VALID,0,VALID,91.3864,VALID,0,VALID,24.675,VALID,70,VALID,0.184766,
2009-07-17, 01:29:05,VALID,1003.95,VALID,0,VALID,91.3177,VALID,0,VALID,24.7159,VALID,70,VALID,0.263672,
2009-07-17, 01:30:05,VALID,1003.91,VALID,0,VALID,91.333,VALID,0,VALID,24.6945,VALID,70,VALID,0.364844,
2009-07-17, 01:31:05,VALID,1003.93,VALID,0,VALID,91.3253,VALID,0,VALID,24.675,VALID,70,VALID,0.348047,
2009-07-17, 01:32:05,VALID,1003.89,VALID,0,VALID,91.3024,VALID,0,VALID,24.6964,VALID,68,VALID,0.469531,
2009-07-17, 01:33:05,VALID,1003.88,VALID,0,VALID,91.2796,VALID,0,VALID,24.7159,VALID,68,VALID,0.562891,
2009-07-17, 01:34:05,VALID,1003.85,VALID,0,VALID,91.2262,VALID,0,VALID,24.6945,VALID,70,VALID,0.191406,
2009-07-17, 01:35:05,VALID,1003.83,VALID,0,VALID,91.1575,VALID,0,VALID,24.7159,VALID,70,VALID,0.238672,
2009-07-17, 01:36:05,VALID,1003.81,VALID,0,VALID,91.127,VALID,0,VALID,24.6964,VALID,70,VALID,0.212109,
2009-07-17, 01:37:05,VALID,1003.8,VALID,0,VALID,91.1117,VALID,0,VALID,24.675,VALID,70,VALID,0,
2009-07-17, 01:38:05,VALID,1003.76,VALID,0,VALID,91.1499,VALID,0,VALID,24.675,VALID,70,VALID,0,
2009-07-17, 01:39:05,VALID,1003.76,VALID,0,VALID,91.1346,VALID,0,VALID,24.6556,VALID,70,VALID,0.00390625,
2009-07-17, 01:40:05,VALID,1003.73,VALID,0,VALID,91.2109,VALID,0,VALID,24.6556,VALID,70,VALID,0.327734,
2009-07-17, 01:41:05,VALID,1003.71,VALID,0,VALID,91.2033,VALID,0,VALID,24.6945,VALID,70,VALID,0.250391,
2009-07-17, 01:42:05,VALID,1003.74,VALID,0,VALID,91.1575,VALID,0,VALID,24.714,VALID,71,VALID,0.411328,
2009-07-17, 01:43:05,VALID,1003.73,VALID,0,VALID,91.0583,VALID,0,VALID,24.7353,VALID,71,VALID,0.331641,
2009-07-17, 01:44:05,VALID,1003.73,VALID,0,VALID,90.9515,VALID,0,VALID,24.7548,VALID,71,VALID,0.241797,
2009-07-17, 01:45:05,VALID,1003.75,VALID,0,VALID,90.9134,VALID,0,VALID,24.7159,VALID,72,VALID,0.303906,
2009-07-17, 01:46:05,VALID,1003.73,VALID,0,VALID,90.9134,VALID,0,VALID,24.6964,VALID,72,VALID,0.526563,
2009-07-17, 01:47:05,VALID,1003.72,VALID,0,VALID,90.9591,VALID,0,VALID,24.7159,VALID,70,VALID,0.523828,
2009-07-17, 01:48:05,VALID,1003.72,VALID,0,VALID,90.9134,VALID,0,VALID,24.7743,VALID,73,VALID,0.811328,
2009-07-17, 01:49:05,VALID,1003.73,VALID,0,VALID,90.7226,VALID,0,VALID,24.7743,VALID,71,VALID,0.183203,
2009-07-17, 01:50:05,VALID,1003.71,VALID,0,VALID,90.6387,VALID,0,VALID,24.7743,VALID,72,VALID,0.475391,
2009-07-17, 01:51:05,VALID,1003.7,VALID,0,VALID,90.5777,VALID,0,VALID,24.8151,VALID,83,VALID,0.277734,
2009-07-17, 01:52:05,VALID,1003.73,VALID,0,VALID,90.5319,VALID,0,VALID,24.8151,VALID,75,VALID,0.525781,
2009-07-17, 01:53:05,VALID,1003.7,VALID,0,VALID,90.4404,VALID,0,VALID,24.8132,VALID,75,VALID,0.272266,
2009-07-17, 01:54:05,VALID,1003.69,VALID,0,VALID,90.3793,VALID,0,VALID,24.8327,VALID,75,VALID,0.136719,
2009-07-17, 01:55:05,VALID,1003.66,VALID,0,VALID,90.3412,VALID,0,VALID,24.8327,VALID,74,VALID,0.741016,
2009-07-17, 01:56:05,VALID,1003.65,VALID,0,VALID,90.2649,VALID,0,VALID,24.8522,VALID,89,VALID,0.570313,
2009-07-17, 01:57:05,VALID,1003.62,VALID,0,VALID,90.1429,VALID,0,VALID,24.9106,VALID,70,VALID,0.260547,
2009-07-17, 01:58:05,VALID,1003.61,VALID,0,VALID,90.0132,VALID,0.100563,VALID,24.9282,VALID,70,VALID,0.0539063,
2009-07-17, 01:59:05,VALID,1003.61,VALID,0,VALID,89.9369,VALID,0.100563,VALID,24.9282,VALID,87,VALID,0.707422,
2009-07-17, 02:00:05,VALID,1003.63,VALID,0,VALID,89.7843,VALID,0,VALID,24.9671,VALID,77,VALID,0.55,
2009-07-17, 02:01:05,VALID,1003.63,VALID,0,VALID,89.6012,VALID,0.100563,VALID,25.0079,VALID,79,VALID,0.756641,
2009-07-17, 02:02:05,VALID,1003.59,VALID,0,VALID,89.4105,VALID,0,VALID,25.0236,VALID,77,VALID,0.71875,
2009-07-17, 02:03:05,VALID,1003.61,VALID,0,VALID,89.2045,VALID,0.100563,VALID,25.0644,VALID,79,VALID,0.384766,
2009-07-17, 02:04:05,VALID,1003.58,VALID,0,VALID,89.0901,VALID,0,VALID,25.0839,VALID,93,VALID,0.379297,
2009-07-17, 02:05:05,VALID,1003.6,VALID,0,VALID,89.0367,VALID,0,VALID,25.0839,VALID,79,VALID,0.453516,
2009-07-17, 02:06:05,VALID,1003.59,VALID,0,VALID,89.0367,VALID,0,VALID,25.0839,VALID,76,VALID,0.333984,
2009-07-17, 02:07:05,VALID,1003.61,VALID,0,VALID,88.9909,VALID,0,VALID,25.0839,VALID,45,VALID,0.240234,
2009-07-17, 02:08:05,VALID,1003.62,VALID,0,VALID,88.9527,VALID,0,VALID,25.0839,VALID,48,VALID,0.626172,
2009-07-17, 02:09:05,VALID,1003.59,VALID,0,VALID,88.9604,VALID,0,VALID,25.1034,VALID,66,VALID,0.414844,
2009-07-17, 02:10:05,VALID,1003.6,VALID,0,VALID,88.9451,VALID,0,VALID,25.1034,VALID,71,VALID,0.674219,
2009-07-17, 02:11:05,VALID,1003.61,VALID,0,VALID,88.8765,VALID,0.100563,VALID,25.1229,VALID,62,VALID,0.426172,
2009-07-17, 02:12:05,VALID,1003.61,VALID,0,VALID,88.9146,VALID,0,VALID,25.1229,VALID,27,VALID,0.548437,
2009-07-17, 02:13:05,VALID,1003.6,VALID,0,VALID,88.8765,VALID,0,VALID,25.1229,VALID,69,VALID,0.601953,
2009-07-17, 02:14:05,VALID,1003.59,VALID,0,VALID,88.9222,VALID,0.100563,VALID,25.1423,VALID,78,VALID,0.6875,
2009-07-17, 02:15:05,VALID,1003.56,VALID,0,VALID,88.8383,VALID,0.100563,VALID,25.1618,VALID,67,VALID,0.480469,
2009-07-17, 02:16:05,VALID,1003.54,VALID,0,VALID,88.762,VALID,0.100563,VALID,25.2007,VALID,80,VALID,0.652344,
2009-07-17, 02:17:05,VALID,1003.53,VALID,0,VALID,88.6705,VALID,0.100563,VALID,25.2007,VALID,72,VALID,0.48125,
2009-07-17, 02:18:05,VALID,1003.56,VALID,0,VALID,88.5789,VALID,0.100563,VALID,25.2007,VALID,81,VALID,0.350391,
2009-07-17, 02:19:05,VALID,1003.54,VALID,0,VALID,88.5866,VALID,0,VALID,25.2221,VALID,74,VALID,0.413672,
2009-07-17, 02:20:05,VALID,1003.52,VALID,0,VALID,88.64,VALID,0,VALID,25.1813,VALID,57,VALID,0.257813,
2009-07-17, 02:21:05,VALID,1003.55,VALID,0,VALID,88.7086,VALID,0,VALID,25.1618,VALID,57,VALID,0.305469,
2009-07-17, 02:22:05,VALID,1003.55,VALID,0,VALID,88.8078,VALID,0,VALID,25.1618,VALID,56,VALID,0.0839844,
2009-07-17, 02:23:05,VALID,1003.54,VALID,0,VALID,88.9299,VALID,0,VALID,25.1229,VALID,56,VALID,0.101563,
2009-07-17, 02:24:05,VALID,1003.56,VALID,0,VALID,89.0748,VALID,0,VALID,25.1034,VALID,74,VALID,0.35,
2009-07-17, 02:25:05,VALID,1003.55,VALID,0,VALID,89.1816,VALID,0,VALID,25.0839,VALID,72,VALID,0.275391,
2009-07-17, 02:26:05,VALID,1003.55,VALID,0,VALID,89.2503,VALID,0,VALID,25.0644,VALID,61,VALID,0.383203,
2009-07-17, 02:27:05,VALID,1003.56,VALID,0,VALID,89.2655,VALID,0.100563,VALID,25.1053,VALID,87,VALID,0.33125,
2009-07-17, 02:28:05,VALID,1003.53,VALID,0,VALID,89.2579,VALID,0,VALID,25.1053,VALID,87,VALID,0.194922,
2009-07-17, 02:29:05,VALID,1003.53,VALID,0,VALID,89.2274,VALID,0,VALID,25.0839,VALID,83,VALID,0.759375,
2009-07-17, 02:30:05,VALID,1003.53,VALID,0,VALID,89.1435,VALID,0.100563,VALID,25.1229,VALID,76,VALID,0.624609,
2009-07-17, 02:31:05,VALID,1003.5,VALID,0,VALID,89.029,VALID,0,VALID,25.1229,VALID,68,VALID,0.851953,
2009-07-17, 02:32:05,VALID,1003.5,VALID,0,VALID,88.8841,VALID,0,VALID,25.1423,VALID,74,VALID,0.6375,
2009-07-17, 02:33:05,VALID,1003.51,VALID,0,VALID,88.8002,VALID,0,VALID,25.1618,VALID,83,VALID,0.370313,
2009-07-17, 02:34:05,VALID,1003.52,VALID,0,VALID,88.7391,VALID,0,VALID,25.1618,VALID,87,VALID,0.8,
2009-07-17, 02:35:05,VALID,1003.46,VALID,0,VALID,88.6171,VALID,0,VALID,25.2027,VALID,81,VALID,0.4375,
2009-07-17, 02:36:05,VALID,1003.49,VALID,0,VALID,88.5103,VALID,0,VALID,25.1813,VALID,67,VALID,0.442578,
2009-07-17, 02:37:05,VALID,1003.47,VALID,0,VALID,88.4264,VALID,0,VALID,25.2221,VALID,70,VALID,0.985937,
2009-07-17, 02:38:05,VALID,1003.46,VALID,0,VALID,88.2433,VALID,0,VALID,25.2611,VALID,66,VALID,1.13477,
2009-07-17, 02:39:05,VALID,1003.41,VALID,0,VALID,88.0907,VALID,0,VALID,25.2592,VALID,68,VALID,0.522656,
2009-07-17, 02:40:05,VALID,1003.41,VALID,0,VALID,88.0449,VALID,0,VALID,25.2592,VALID,69,VALID,0.426172,
2009-07-17, 02:41:05,VALID,1003.4,VALID,0,VALID,88.0525,VALID,0,VALID,25.2397,VALID,50,VALID,0.435547,
2009-07-17, 02:42:05,VALID,1003.39,VALID,0,VALID,88.167,VALID,0,VALID,25.2007,VALID,50,VALID,0.462109,
2009-07-17, 02:43:05,VALID,1003.35,VALID,0,VALID,88.3195,VALID,0.100563,VALID,25.1423,VALID,50,VALID,0.141016,
2009-07-17, 02:44:04,VALID,1003.36,VALID,0,VALID,88.5026,VALID,0,VALID,25.0839,VALID,50,VALID,0.00351562,
2009-07-17, 02:45:04,VALID,1003.35,VALID,0,VALID,88.6934,VALID,0,VALID,25.045,VALID,50,VALID,0.0078125,
2009-07-17, 02:46:04,VALID,1003.36,VALID,0,VALID,88.907,VALID,0,VALID,24.9866,VALID,50,VALID,0.178906,
2009-07-17, 02:47:04,VALID,1003.36,VALID,0,VALID,89.1358,VALID,0.100563,VALID,24.9282,VALID,57,VALID,0.422266,
2009-07-17, 02:48:04,VALID,1003.34,VALID,0,VALID,89.3113,VALID,0,VALID,24.8697,VALID,75,VALID,0.322266,
2009-07-17, 02:49:04,VALID,1003.36,VALID,0,VALID,89.4944,VALID,0,VALID,24.8503,VALID,66,VALID,0.550781,
2009-07-17, 02:50:04,VALID,1003.33,VALID,0,VALID,89.6546,VALID,0,VALID,24.8327,VALID,72,VALID,0.484375,
2009-07-17, 02:51:04,VALID,1003.33,VALID,0,VALID,89.9216,VALID,0,VALID,24.8113,VALID,84,VALID,0.694141,
2009-07-17, 02:52:04,VALID,1003.31,VALID,0,VALID,89.9521,VALID,0,VALID,24.8308,VALID,96,VALID,0.774219,
2009-07-17, 02:53:04,VALID,1003.31,VALID,0,VALID,89.7996,VALID,0,VALID,24.8697,VALID,87,VALID,0.635156,
2009-07-17, 02:54:04,VALID,1003.28,VALID,0,VALID,89.5631,VALID,0,VALID,24.9087,VALID,78,VALID,0.483594,
2009-07-17, 02:55:04,VALID,1003.26,VALID,0,VALID,89.4105,VALID,0.100563,VALID,24.9476,VALID,67,VALID,0.611328,
2009-07-17, 02:56:04,VALID,1003.24,VALID,0,VALID,89.2274,VALID,0,VALID,24.9671,VALID,62,VALID,0.311328,
2009-07-17, 02:57:04,VALID,1003.24,VALID,0,VALID,89.0824,VALID,0,VALID,24.9885,VALID,85,VALID,0.56875,
2009-07-17, 02:58:04,VALID,1003.22,VALID,0,VALID,89.0214,VALID,0,VALID,24.9866,VALID,81,VALID,0.867188,
2009-07-17, 02:59:04,VALID,1003.22,VALID,0,VALID,88.9985,VALID,0,VALID,24.9866,VALID,63,VALID,0.405469,
2009-07-17, 03:00:04,VALID,1003.23,VALID,0,VALID,88.9451,VALID,0,VALID,25.0079,VALID,62,VALID,0.436719,
2009-07-17, 03:01:04,VALID,1003.24,VALID,0,VALID,88.9451,VALID,0,VALID,24.9671,VALID,73,VALID,0.719141,
2009-07-17, 03:02:04,VALID,1003.22,VALID,0,VALID,88.8612,VALID,0,VALID,25.0079,VALID,56,VALID,0.65,
2009-07-17, 03:03:04,VALID,1003.24,VALID,0,VALID,88.8612,VALID,0,VALID,24.9885,VALID,73,VALID,0.252344,
2009-07-17, 03:04:04,VALID,1003.22,VALID,0,VALID,88.907,VALID,0,VALID,24.9671,VALID,66,VALID,0.660547,
2009-07-17, 03:05:04,VALID,1003.22,VALID,0,VALID,88.907,VALID,0,VALID,24.9866,VALID,44,VALID,0.348047,
2009-07-17, 03:06:04,VALID,1003.22,VALID,0,VALID,88.9756,VALID,0,VALID,24.9476,VALID,50,VALID,0.484375,
2009-07-17, 03:07:04,VALID,1003.2,VALID,0,VALID,89.113,VALID,0,VALID,24.9282,VALID,68,VALID,0.483984,
2009-07-17, 03:08:04,VALID,1003.18,VALID,0,VALID,89.1969,VALID,0,VALID,24.9087,VALID,63,VALID,0.670313,
2009-07-17, 03:09:04,VALID,1003.19,VALID,0,VALID,89.2732,VALID,0.100563,VALID,24.9106,VALID,61,VALID,0.642969,
2009-07-17, 03:10:04,VALID,1003.18,VALID,0,VALID,89.4334,VALID,0,VALID,24.8716,VALID,64,VALID,0.703516,
2009-07-17, 03:11:04,VALID,1003.17,VALID,0,VALID,89.5783,VALID,0,VALID,24.8113,VALID,45,VALID,0.296875,
2009-07-17, 03:12:04,VALID,1003.19,VALID,0,VALID,89.6775,VALID,0,VALID,24.8132,VALID,35,VALID,0.348437,
2009-07-17, 03:13:04,VALID,1003.18,VALID,0,VALID,89.7538,VALID,0,VALID,24.7529,VALID,35,VALID,0.146094,
2009-07-17, 03:14:04,VALID,1003.15,VALID,0,VALID,90.0208,VALID,0,VALID,24.7548,VALID,57,VALID,0.635938,
2009-07-17, 03:15:04,VALID,1003.15,VALID,0,VALID,90.2344,VALID,0,VALID,24.714,VALID,62,VALID,0.521484,
2009-07-17, 03:16:04,VALID,1003.14,VALID,0,VALID,90.4327,VALID,0,VALID,24.7548,VALID,63,VALID,0.0417969,
2009-07-17, 03:17:04,VALID,1003.13,VALID,0,VALID,90.5548,VALID,0,VALID,24.7335,VALID,35,VALID,0.442969,
2009-07-17, 03:18:04,VALID,1003.13,VALID,0,VALID,90.6387,VALID,0,VALID,24.7529,VALID,52,VALID,0.211328,
2009-07-17, 03:19:04,VALID,1003.12,VALID,0,VALID,90.6311,VALID,0,VALID,24.7529,VALID,52,VALID,0.31875,
2009-07-17, 03:20:04,VALID,1003.09,VALID,0,VALID,90.509,VALID,0,VALID,24.7529,VALID,41,VALID,0.4875,
2009-07-17, 03:21:04,VALID,1003.1,VALID,0,VALID,90.5853,VALID,0,VALID,24.7316,VALID,13,VALID,0.652734,
2009-07-17, 03:22:04,VALID,1003.09,VALID,0,VALID,90.6387,VALID,0.100563,VALID,24.7335,VALID,12,VALID,0.485156,
2009-07-17, 03:23:04,VALID,1003.09,VALID,0,VALID,90.6158,VALID,0,VALID,24.7335,VALID,12,VALID,0.410156,
2009-07-17, 03:24:04,VALID,1003.08,VALID,0,VALID,90.7532,VALID,0,VALID,24.7335,VALID,12,VALID,0.433203,
2009-07-17, 03:25:04,VALID,1003.07,VALID,0,VALID,90.8295,VALID,0,VALID,24.7548,VALID,12,VALID,0.397656,
2009-07-17, 03:26:04,VALID,1003.06,VALID,0,VALID,90.9286,VALID,0,VALID,24.6945,VALID,12,VALID,0.289063,
2009-07-17, 03:27:04,VALID,1003.04,VALID,0,VALID,90.9286,VALID,0,VALID,24.675,VALID,19,VALID,0.256641,
2009-07-17, 03:28:04,VALID,1003.09,VALID,0,VALID,90.8752,VALID,0,VALID,24.675,VALID,19,VALID,0.05625,
2009-07-17, 03:29:04,VALID,1003.07,VALID,0,VALID,90.8676,VALID,0,VALID,24.6574,VALID,19,VALID,0.347266,
2009-07-17, 03:30:04,VALID,1003.07,VALID,0,VALID,90.9744,VALID,0,VALID,24.5777,VALID,19,VALID,0.241406,
2009-07-17, 03:31:04,VALID,1003.08,VALID,0,VALID,91.1117,VALID,0.100563,VALID,24.5193,VALID,19,VALID,0.388672,
2009-07-17, 03:32:04,VALID,1003.1,VALID,0,VALID,91.2796,VALID,0,VALID,24.4804,VALID,19,VALID,0.244141,
2009-07-17, 03:33:04,VALID,1003.08,VALID,0,VALID,91.4474,VALID,0,VALID,24.4396,VALID,19,VALID,0.387891,
2009-07-17, 03:34:04,VALID,1003.09,VALID,0,VALID,91.7754,VALID,0,VALID,24.422,VALID,19,VALID,0.571484,
2009-07-17, 03:35:04,VALID,1003.11,VALID,0,VALID,92.0501,VALID,0,VALID,24.4025,VALID,19,VALID,0.455859,
2009-07-17, 03:36:04,VALID,1003.12,VALID,0,VALID,92.0196,VALID,0.100563,VALID,24.383,VALID,19,VALID,0.314844,
2009-07-17, 03:37:04,VALID,1003.16,VALID,0,VALID,91.9814,VALID,0,VALID,24.3246,VALID,19,VALID,0.0722656,
2009-07-17, 03:38:04,VALID,1003.17,VALID,0,VALID,92.1492,VALID,0,VALID,24.3052,VALID,19,VALID,0.135937,
2009-07-17, 03:39:04,VALID,1003.18,VALID,0,VALID,92.1645,VALID,0,VALID,24.2662,VALID,19,VALID,0,
2009-07-17, 03:40:04,VALID,1003.21,VALID,0,VALID,92.2179,VALID,0,VALID,24.2486,VALID,19,VALID,0.342969,
2009-07-17, 03:41:04,VALID,1003.19,VALID,0,VALID,92.2866,VALID,0,VALID,24.1689,VALID,19,VALID,0.244531,
2009-07-17, 03:42:04,VALID,1003.23,VALID,0,VALID,92.5536,VALID,0,VALID,24.1689,VALID,20,VALID,0.455078,
2009-07-17, 03:43:04,VALID,1003.22,VALID,0,VALID,92.5612,VALID,0,VALID,24.1531,VALID,20,VALID,0.0261719,
2009-07-17, 03:44:04,VALID,1003.2,VALID,0,VALID,92.7672,VALID,0,VALID,24.1531,VALID,34,VALID,0.170312,
2009-07-17, 03:45:04,VALID,1003.19,VALID,0,VALID,92.9274,VALID,0,VALID,24.1726,VALID,34,VALID,0.0757812,